Lamar, CO

11:38 AM MST on November 21, 2019 (GMT -0700)
Lamar Municipal

Weather History for KLAA - September, 2019

Change the Weather History Date:

Wednesday, September 4, 2019

  Actual Average Record
Temperature  
Mean Temperature 80 °F 71 °F  
Max Temperature 98 °F 87 °F 103 °F (2013)
Min Temperature 61 °F 56 °F 40 °F (1988)
Degree Days  
Heating Degree Days 0 1  
Month to date heating degree days 0 3  
Since 1 July heating degree days 0 8  
Cooling Degree Days 15 7  
Month to date cooling degree days 62 28  
Year to date cooling degree days 1164 1017  
Growing Degree Days 30 (Base 50)    
Moisture  
Dew Point 57 °F    
Average Humidity 56    
Maximum Humidity 90    
Minimum Humidity 21    
Precipitation  
Precipitation 0.00 in 0.05 in 1.96 in (1951)
Month to date precipitation 0.00 0.22  
Year to date precipitation 7.23 12.59  
Sea Level Pressure  
Sea Level Pressure 30.01 in    
Wind  
Wind Speed 7 mph (South)    
Max Wind Speed 20 mph    
Max Gust Speed 32 mph    
Visibility 10 miles    
Events      
T = Trace of Precipitation, MM = Missing Value Source: NWS Daily Summary

Daily Weather History Graph

Daily Weather History Graph

Search for Another Location

Airport or City:

Astronomy

Sep. 04, 2019 Rise Set
Actual Time 6:22 AM MDT 7:16 PM MDT
Civil Twilight 5:56 AM MDT 7:42 PM MDT
Nautical Twilight 5:24 AM MDT 8:14 PM MDT
Astronomical Twilight 4:51 AM MDT 8:47 PM MDT
Moon 12:21 PM MDT (9/4) 10:57 PM MDT (9/4)
Length of Visible Light 13h 46m
Length of Day
12h 53m
Waxing Crescent, 35% of the Moon is Illuminated
Sep 4
Waxing Crescent
Sep 5
First Quarter
Sep 13
Full
Sep 21
Last Quarter
Sep 28
New

Hourly Weather History & Observations

Time (MDT) Temp. Heat Index Dew Point Humidity Pressure Visibility Wind Dir Wind Speed Gust Speed Precip Events Conditions
12:53 AM 72.0 °F - 60.1 °F 66% 30.04 in 10.0 mi NE 9.2 mph - N/A   Overcast
1:53 AM 70.0 °F - 60.1 °F 71% 30.04 in 10.0 mi NNE 6.9 mph - N/A   Mostly Cloudy
2:53 AM 66.9 °F - 59.0 °F 76% 30.04 in 10.0 mi Calm Calm - N/A   Clear
3:53 AM 64.9 °F - 59.0 °F 81% 30.06 in 10.0 mi Calm Calm - N/A   Mostly Cloudy
4:48 AM 66.2 °F - 59.0 °F 78% 30.21 in 10.0 mi East 5.8 mph - N/A   Scattered Clouds
4:53 AM 64.9 °F - 59.0 °F 81% 30.06 in 10.0 mi ENE 4.6 mph - N/A   Scattered Clouds
5:53 AM 63.0 °F - 59.0 °F 87% 30.07 in 10.0 mi Calm Calm - N/A   Clear
6:53 AM 63.0 °F - 57.9 °F 84% 30.09 in 10.0 mi Calm Calm - N/A   Partly Cloudy
7:53 AM 69.1 °F - 61.0 °F 75% 30.09 in 10.0 mi Calm Calm - N/A   Clear
8:53 AM 70.0 °F - 61.0 °F 73% 30.09 in 10.0 mi WNW 4.6 mph - N/A   Clear
9:53 AM 75.9 °F - 62.1 °F 62% 30.08 in 10.0 mi Calm Calm - N/A   Clear
10:53 AM 80.1 °F 81.7 °F 64.0 °F 58% 30.06 in 10.0 mi Variable 4.6 mph - N/A   Clear
11:53 AM 84.0 °F 84.9 °F 63.0 °F 49% 30.04 in 10.0 mi Calm Calm - N/A   Clear
12:53 PM 89.1 °F 89.3 °F 62.1 °F 40% 30.01 in 10.0 mi North - - N/A   Clear
1:53 PM 93.0 °F 92.7 °F 60.1 °F 33% 29.97 in 10.0 mi South 9.2 mph - N/A   Clear
2:53 PM 96.1 °F 95.2 °F 57.9 °F 28% 29.94 in 10.0 mi SSW 10.4 mph 21.9 mph N/A   Clear
3:53 PM 97.0 °F 95.3 °F 55.9 °F 25% 29.91 in 10.0 mi South 11.5 mph 19.6 mph N/A   Clear
4:53 PM 98.1 °F - 52.0 °F 21% 29.89 in 10.0 mi South 15.0 mph - N/A   Clear
5:53 PM 97.0 °F - 51.1 °F 21% 29.90 in 10.0 mi South 12.7 mph 21.9 mph N/A   Clear
6:53 PM 91.9 °F - 48.9 °F 23% 29.91 in 10.0 mi South 12.7 mph - N/A   Clear
7:53 PM 86.0 °F - 50.0 °F 29% 29.92 in 10.0 mi South 12.7 mph - N/A   Clear
8:53 PM 81.0 °F - 50.0 °F 34% 29.94 in 10.0 mi South 13.8 mph - N/A   Clear
9:53 PM 80.1 °F - 50.0 °F 35% 29.95 in 10.0 mi South 16.1 mph - N/A   Clear
10:53 PM 78.1 °F - 50.0 °F 37% 29.96 in 10.0 mi SSW 9.2 mph - N/A   Clear
11:53 PM 72.0 °F - 50.0 °F 46% 29.96 in 10.0 mi SW 4.6 mph - N/A   Clear